Iron Mountain, MI

4:36 AM CDT on October 24, 2017 (GMT -0500)
Ford

Weather History for KIMT - July, 2013

Change the Weather History Date:

Saturday, July 13, 2013

  Actual Average Record
Temperature  
Mean Temperature 74 °F -  
Max Temperature 87 °F 80 °F 103 °F (1936)
Min Temperature 62 °F 55 °F 41 °F (1944)
Cooling Degree Days 9    
Growing Degree Days 24 (Base 50)    
Moisture  
Dew Point 58 °F    
Average Humidity 62    
Maximum Humidity 84    
Minimum Humidity 37    
Precipitation  
Precipitation 0.00 in - - ()
Sea Level Pressure  
Sea Level Pressure 30.11 in    
Wind  
Wind Speed 6 mph (South)    
Max Wind Speed 13 mph    
Max Gust Speed 21 mph    
Visibility 10 miles    
Events      
Averages and records for this station are not official NWS values.
T = Trace of Precipitation, MM = Missing Value Source: NWS Daily Summary

Daily Weather History Graph

Daily Weather History Graph

Search for Another Location

Airport or City:

Trip Planner

Search our weather history database for the weather conditions in past years. The results will help you decide how hot, cold, wet, or windy it might be!

Date:

Astronomy

Jul. 13, 2013 Rise Set
Actual Time 5:15 AM CDT 8:40 PM CDT
Civil Twilight 4:38 AM CDT 9:17 PM CDT
Nautical Twilight 3:49 AM CDT 10:05 PM CDT
Astronomical Twilight 2:47 AM CDT 11:07 PM CDT
Moon 10:51 AM CDT (7/13) 10:59 PM CDT (7/13)
Length of Visible Light 16h 38m
Length of Day
15h 25m
Waxing Crescent, 26% of the Moon is Illuminated
Jul 13
Waxing Crescent
Jul 15
First Quarter
Jul 22
Full
Jul 29
Last Quarter
Aug 6
New

Hourly Weather History & Observations

Time (CDT) Temp. Heat Index Dew Point Humidity Pressure Visibility Wind Dir Wind Speed Gust Speed Precip Events Conditions
12:54 AM 63.0 °F - 55.0 °F 75% 30.08 in 10.0 mi Calm Calm - N/A   Clear
1:54 AM 64.0 °F - 55.9 °F 75% 30.09 in 10.0 mi South 4.6 mph - N/A   Clear
2:54 AM 62.1 °F - 55.9 °F 80% 30.08 in 10.0 mi SE 4.6 mph - N/A   Clear
3:54 AM 62.1 °F - 55.9 °F 80% 30.08 in 10.0 mi SSE 4.6 mph - N/A   Clear
4:54 AM 62.1 °F - 57.0 °F 84% 30.07 in 10.0 mi SSE 5.8 mph - N/A   Clear
5:54 AM 62.1 °F - 57.0 °F 84% 30.10 in 10.0 mi SSE 5.8 mph - N/A   Clear
6:54 AM 62.1 °F - 57.0 °F 84% 30.11 in 10.0 mi SE 4.6 mph - N/A   Clear
7:54 AM 64.0 °F - 57.9 °F 80% 30.12 in 10.0 mi SE 6.9 mph - N/A   Clear
8:54 AM 71.1 °F - 59.0 °F 66% 30.14 in 10.0 mi South 9.2 mph - N/A   Clear
9:54 AM 75.9 °F - 59.0 °F 56% 30.13 in 10.0 mi SW 11.5 mph 17.3 mph N/A   Clear
10:54 AM 79.0 °F - 59.0 °F 50% 30.12 in 10.0 mi SSW 11.5 mph 20.7 mph N/A   Clear
11:54 AM 81.0 °F 81.1 °F 57.9 °F 45% 30.12 in 10.0 mi SSW 10.4 mph 20.7 mph N/A   Clear
12:54 PM 84.0 °F 83.8 °F 59.0 °F 43% 30.12 in 10.0 mi South 11.5 mph - N/A   Clear
1:54 PM 84.9 °F 84.2 °F 57.9 °F 40% 30.11 in 10.0 mi SSW 10.4 mph - N/A   Clear
2:54 PM 86.0 °F 84.9 °F 57.0 °F 37% 30.11 in 10.0 mi SSW 6.9 mph - N/A   Clear
3:54 PM 84.0 °F 84.0 °F 60.1 °F 44% 30.11 in 10.0 mi SSE 10.4 mph - N/A   Clear
4:54 PM 84.0 °F 83.0 °F 55.9 °F 38% 30.11 in 10.0 mi South 12.7 mph - N/A   Clear
5:54 PM 82.0 °F 81.6 °F 55.9 °F 41% 30.12 in 10.0 mi South 9.2 mph - N/A   Clear
6:54 PM 81.0 °F 80.7 °F 55.0 °F 41% 30.12 in 10.0 mi South 5.8 mph - N/A   Clear
7:54 PM 77.0 °F - 57.9 °F 52% 30.12 in 10.0 mi South 4.6 mph - N/A   Clear
8:54 PM 72.0 °F - 61.0 °F 68% 30.12 in 10.0 mi SSE 5.8 mph - N/A   Clear
9:54 PM 71.1 °F - 62.1 °F 73% 30.14 in 10.0 mi SSE 5.8 mph - N/A   Clear
10:54 PM 70.0 °F - 61.0 °F 73% 30.14 in 10.0 mi South 5.8 mph - N/A   Clear
11:54 PM 68.0 °F - 57.9 °F 70% 30.16 in 10.0 mi South 4.6 mph - N/A   Clear